GW5346 Weather Reports


Display with metric or nautical units.
time (UTC)temp
F
wind
direction
speed
MPH
gust
MPH
rain 1hr
in
rain 24hr
in
rain mn
in
humidity
%
barometer
mb
20260503004549 66 152 4.0 10.0 0.00 0.00 0.00 32 1015.2
20260503003051 66 128 8.0 11.0 0.00 0.00 0.00 32 1015.2
20260503001541 66 153 6.0 10.0 0.00 0.00 0.00 33 1015.5
20260503000051 66 131 3.0 8.0 0.00 0.00 0.00 32 1015.7
20260502234558 68 117 2.0 6.0 0.00 0.00 0.00 30 1015.5
20260502233048 70 284 2.0 7.0 0.00 0.00 0.00 28 1015.8
20260502231600 70 337 1.0 8.0 0.00 0.00 0.00 29 1015.9
20260502230044 70 12 4.0 9.0 0.00 0.00 0.00 28 1016.0
20260502224550 70 274 3.0 9.0 0.00 0.00 0.00 29 1016.2
20260502223051 69 217 2.0 10.0 0.00 0.00 0.00 31 1016.2
20260502221547 68 129 3.0 11.0 0.00 0.00 0.00 31 1016.4
20260502220048 67 108 1.0 9.0 0.00 0.00 0.00 32 1016.6
20260502214548 66 259 1.0 7.0 0.00 0.00 0.00 32 1017.1
20260502213044 66 74 3.0 7.0 0.00 0.00 0.00 33 1017.2
20260502211551 66 294 3.0 10.0 0.00 0.00 0.00 33 1017.4
20260502210050 66 79 2.0 10.0 0.00 0.00 0.00 33 1017.7
20260502204551 66 352 5.0 14.0 0.00 0.00 0.00 34 1017.7
20260502203047 67 300 6.0 10.0 0.00 0.00 0.00 32 1017.9
20260502201552 66 317 4.0 10.0 0.00 0.00 0.00 35 1018.0
20260502200053 65 291 4.0 13.0 0.00 0.00 0.00 35 1018.2
20260502194555 65 269 6.0 14.0 0.00 0.00 0.00 36 1018.3
20260502193053 65 348 7.0 11.0 0.00 0.00 0.00 35 1018.6
20260502191554 65 288 2.0 10.0 0.00 0.00 0.00 35 1019.0
20260502190055 65 266 6.0 10.0 0.00 0.00 0.00 36 1018.9
20260502184554 64 350 3.0 10.0 0.00 0.00 0.00 37 1019.3
20260502183052 63 314 3.0 12.0 0.00 0.00 0.00 37 1019.3
20260502181552 65 273 6.0 13.0 0.00 0.00 0.00 36 1019.3
20260502180106 65 335 5.0 10.0 0.00 0.00 0.00 37 1019.5
20260502163051 60 333 3.0 11.0 0.00 0.00 0.00 43 1019.9
20260502161550 59 252 4.0 10.0 0.00 0.00 0.00 43 1019.9
20260502151553 54 360 9.0 15.0 0.00 0.00 0.00 52 1019.9
20260502123056 42 274 6.0 9.0 0.00 0.00 0.00 60 1018.8
20260502121553 41 277 4.0 6.0 0.00 0.00 0.00 60 1018.4
20260502120105 41 275 3.0 7.0 0.00 0.00 0.00 59 1018.4
20260502114555 41 306 4.0 9.0 0.00 0.00 0.00 59 1018.3
20260502113057 41 273 5.0 8.0 0.00 0.00 0.00 57 1018.2
20260502111605 42 289 6.0 10.0 0.00 0.00 0.00 57 1017.8
20260502110056 43 257 7.0 8.0 0.00 0.00 0.00 56 1017.5
20260502104550 44 271 7.0 9.0 0.00 0.00 0.00 53 1017.2
20260502103106 46 267 5.0 7.0 0.00 0.00 0.00 52 1017.1
20260502101604 46 284 5.0 10.0 0.00 0.00 0.00 52 1017.0
20260502070045 47 259 2.0 4.0 0.00 0.00 0.00 37 1015.5
20260502064547 48 9 1.0 4.0 0.00 0.00 0.00 39 1015.5
20260502063053 47 9 2.0 4.0 0.00 0.00 0.00 41 1015.6
20260502061553 47 9 3.0 5.0 0.00 0.00 0.00 40 1015.5
20260502060056 48 11 3.0 6.0 0.00 0.00 0.00 37 1015.3
20260502054553 50 314 3.0 6.0 0.00 0.00 0.00 35 1015.2
20260502053055 51 329 5.0 8.0 0.00 0.00 0.00 35 1015.2
20260502051552 52 323 3.0 7.0 0.00 0.00 0.00 33 1015.2
20260502050049 53 280 3.0 7.0 0.00 0.00 0.00 32 1015.1
20260502044550 53 277 3.0 9.0 0.00 0.00 0.00 32 1015.0
20260502043050 52 286 3.0 7.0 0.00 0.00 0.00 32 1014.9
20260502041546 53 267 7.0 10.0 0.00 0.00 0.00 30 1014.7
20260502040046 56 262 7.0 12.0 0.00 0.00 0.00 28 1014.8
20260502034543 56 274 9.0 11.0 0.00 0.00 0.00 28 1014.7
20260502033047 58 259 8.0 10.0 0.00 0.00 0.00 25 1014.6
20260502031550 60 257 9.0 12.0 0.00 0.00 0.00 24 1014.4
20260502030054 61 267 9.0 12.0 0.00 0.00 0.00 22 1014.3
20260502024553 64 263 8.0 10.0 0.00 0.00 0.00 19 1014.1
20260502023053 66 268 8.0 11.0 0.00 0.00 0.00 18 1013.9
20260502021550 68 273 7.0 13.0 0.00 0.00 0.00 17 1013.9
20260502020046 70 275 10.0 15.0 0.00 0.00 0.00 16 1013.7
20260502014548 71 275 9.0 14.0 0.00 0.00 0.00 15 1013.6
20260502013054 72 290 11.0 19.0 0.00 0.00 0.00 14 1013.7
20260502011551 73 289 13.0 18.0 0.00 0.00 0.00 13 1013.7
20260502010054 73 263 13.0 17.0 0.00 0.00 0.00 15 1013.7